This demonstration page uses our WeatherBlox Daily Observations layout. Learn more.

36.17497, -115.13722

Hourly Observations for February 14, 2018

Temp ( °F °C ) Dew Point ( °F °C ) Humidity (%) Winds ( mph kmh ) Pressure ( in mb ) Visibility ( mi km ) Precip ( " mm )
12:53 am 00:53 Cloudy 52 11.1 37 2.8 57 57 Calm 30.22 1023 10 16.0934 0 0
1:53 am 01:53 Cloudy 51 10.6 34 1.1 52 52 N 7 11 30.2 1023 10 16.0934 0 0
2:53 am 02:53 Cloudy 52 11.1 33 0.6 49 49 N 6 9 30.19 1022 10 16.0934 0 0
3:53 am 03:53 Cloudy 51 10.6 31 -0.6 46 46 NNW 7 11 30.17 1022 10 16.0934 0 0
4:53 am 04:53 Cloudy 51 10.6 31 -0.6 46 46 NNW 6 9 30.17 1022 10 16.0934 0 0
5:53 am 05:53 Cloudy 51 10.6 31 -0.6 46 46 N 7 11 30.16 1021 10 16.0934 0 0
6:53 am 06:53 Cloudy 50 10 30 -1.1 46 46 NNW 6 9 30.17 1022 10 16.0934 0 0
7:53 am 07:53 Cloudy 51 10.6 31 -0.6 46 46 N 9 15 30.16 1022 10 16.0934 0 0
8:53 am 08:53 Cloudy 52 11.1 32 0 47 47 NNW 8 13 30.18 1022 10 16.0934 0 0
9:53 am 09:53 Cloudy with Light Rain 51 10.6 41 5 69 69 NE 5 7 30.19 1022 6 9.65604 0.01 0.254
10:53 am 10:53 Cloudy 53 11.7 41 5 64 64 Calm 30.17 1022 10 16.0934 0 0.0254
11:53 am 11:53 Cloudy 54 12.2 42 5.6 64 64 Calm 30.13 1020 10 16.0934 0 0.0254
12:53 pm 12:53 Mostly Cloudy 58 14.4 40 4.4 51 51 Calm 30.09 1019 10 16.0934 0 0
1:53 pm 13:53 Cloudy 59 15 40 4.4 49 49 S 10 17 30.06 1018 10 16.0934 0 0
2:53 pm 14:53 Partly Cloudy 59 15 39 3.9 48 48 S 10 17 30.04 1017 10 16.0934 0 0
3:53 pm 15:53 Mostly Sunny 61 16.1 39 3.9 44 44 S 8 13 30.01 1016 10 16.0934 0 0
4:53 pm 16:53 Mostly Sunny 58 14.4 41 5 53 53 SSE 12 19 30.02 1017 10 16.0934 0 0
5:53 pm 17:53 Clear 58 14.4 35 1.7 42 42 SW 8 13 30.03 1017 10 16.0934 0 0
6:53 pm 18:53 Clear 58 14.4 36 2.2 44 44 SSW 14 22 30.03 1017 10 16.0934 0 0
7:53 pm 19:53 Clear 57 13.9 34 1.1 42 42 SSW 9 15 30.03 1017 10 16.0934 0 0
8:53 pm 20:53 Clear 56 13.3 35 1.7 46 46 SSW 14 22 30.03 1017 10 16.0934 0 0
9:53 pm 21:53 Clear 54 12.2 35 1.7 49 49 SSW 14 22 30.04 1017 10 16.0934 0 0
10:53 pm 22:53 Clear 55 12.8 34 1.1 45 45 SSW 21 33 30.04 1017 10 16.0934 0 0
11:53 pm 23:53 Clear 53 11.7 34 1.1 48 48 S 9 15 30.04 1017 10 16.0934 0 0

Powered by AerisWeather